Location: Staunton
(38.1490°N, 79.0720°W)
Time: 00:07:05
(UTC-05:00)

ISS - Pass Details

Date: 19 February 2020
Orbit: 415 x 423 km, 51.6° (Epoch: 27 February)

Event Time Altitude Azimuth Distance (km) Brightness Sun altitude
Rises 06:01:45 0° 192° (SSW) 2,345 0.0 -12.5°
Reaches altitude 10° 06:04:22 10° 170° (S) 1,489 -0.8 -12.0°
Maximum altitude 06:06:32 16° 129° (SE) 1,172 -0.7 -11.6°
Drops below altitude 10° 06:08:43 10° 89° (E) 1,499 0.6 -11.2°
Sets 06:11:22 0° 67° (ENE) 2,369 1.2 -10.7°
